STARLINK-11119, 60121

Orbit data source: Space-Track

STARLINK-11119, 60121 is a payload satellite owned by SpaceX/Seattle (US) in LEO that was launched on Mon, 24 Jun 2024 UTC via an FALCON 9 launch vehicle from the Air Force Western Test Range (AFWTR). Payload-class satellites include a variety of spacecraft equipped with specific instruments for various scientific and technological missions. These include communications satellites like Starlink; space stations such as the ISS; scientific satellites like the Hubble; Earth observation satellites from companies like Planet Labs, Umbra, and HawkEye 360; GPS; miniature CubeSats for education and research; and military/defense satellites.

Loading next visibility...
Identifier
60121, 2024-118J
Orbit
LEO
Country
Flag of USUS
Related business
Manufacturer
SpaceX/Seattle
Mission
Operational Commercial Communications
Bus & Motor
STARLINK V2MD, Unknown motor
Mass
960 kg wet, ~910 kg dry
Launch date (UTC)
2024-06-24 (1 year ago)
Launch vehicle
FALCON 9
Launch site
Air Force Western Test Range (AFWTR)
Object type
Payload
Rocket body
Debris
Shape & HBR
Box + 2 Pan, 18.1 m
Radar Cross Section
36.964 m², Large (>1 m²)

Expand to show TLE details & history
Last TLE update: 1 day ago

TLE from 1 day ago
0 STARLINK-11119
1 60121U 24118J   25303.27521008 -.00000495  00000-0  77435-6 0  9995
2 60121  53.1587 143.9076 0001049  71.2103 288.9029 15.69710785 77516
Epoch: 2025-10-30T06:36Z
TLE epoch observation values (Epoch: 2025-10-30T06:36:18.150Z)
Latitude
-0.00002°
Longitude
5.99563°
Altitude
360.411 km
Speed
7.694 km/s
True Right ascension
09h 35m 37s
True Declination
0° 00' 00"
Sunlit
Object was in daylight at epoch
Visualization orbit readout
Latitude
Unknown
Longitude
Unknown
Altitude
Unknown
Speed
Unknown
Apparent Right ascension
Unknown
Apparent Declination
Unknown
Sunlit
N/A
Visualization observer readout
Local Sidereal Time
08:08:04
Azimuth
Unknown
Elevation
Unknown
Doppler factor
Unknown
Orbital elements
Apogee altitude
360.692 km
Perigee altitude
359.279 km
Semi-major axis
6,738.122 km
Eccentricity
0.0001
Inclination
53.1587°
RAAN
143.9076°
Arg. of periapsis
71.2103°
True anomaly
288.89153°
Mean anomaly
288.9029°
Eccentric anomaly
288.89721°
Mean motion
3.92405 °/min
Orbital period
91.74 mins
BSTAR
7.7435e-7
Loading maneuver chart data...
Computing Atmospheric mass density...
Loading historical data...
Loading historical data...
Loading historical data...
Loading historical data...
Loading historical data...
Loading historical data...
Loading historical data...

Documentation

Showing up to 5 results
|